Regional Weather Roundup
Issued by NWS

Home | Current Version | Previous Version | Graphics & Text | Print | Product List | Glossary On
Versions: 1 2 3 4 5 6 7 8 9 10 11 12 13 14 15 16 17 18 19 20 21 22 23 24 25 26 27 28 29 30 31 32 33 34 35 36 37 38 39 40 41 42 43 44 45 46 47 48 49 50
000
ASUS45 KSLC 021510
RWRUT

UTAH REGIONAL WEATHER ROUNDUP
NATIONAL WEATHER SERVICE SALT LAKE CITY UT
800 AM MST MON MAR 02 2015

UTZ001>011-023>025-021600-

NORTHERN UTAH

CITY           SKY/WX    TMP DP  RH WIND       PRES   REMARKS
BRIGHAM CITY   CLOUDY    34  22  63 CALM      29.79F
HILL AFB       CLOUDY    33  29  85 E18       29.77F WCI  22
LOGAN          CLOUDY    31  23  72 NE3       29.81S
OGDEN          CLOUDY    34  29  82 CALM      29.77F
PROVO AIRPORT  CLOUDY    36  32  87 CALM      29.79S
SALT LAKE CITY CLOUDY    39  32  76 S3        29.78F
VERNAL         SNOW      32  31  96 NW3       29.83F VSB 1/2
WENDOVER       CLOUDY    34  19  55 S6        29.80S WCI  29
HEBER CITY     LGT SNOW  32  30  93 CALM      29.78S
WEST JORDAN    CLOUDY    36  36 100 CALM      29.78F

$$

UTZ012>022-026-027-021600-

SOUTHERN/CENTRAL UTAH

CITY           SKY/WX    TMP DP  RH WIND       PRES   REMARKS
BLANDING       CLOUDY    36  35  97 SE7       29.96S WCI  31
BRYCE CANYON   SNOW      29  28  96 SE10      29.78F VSB 1/4 WCI  20
CEDAR CITY     SNOW      31  30  96 W3        29.77R VSB 1/2
DELTA          CLOUDY    32  32 100 SW3       29.78F
MILFORD        SNOW      32  31  96 CALM      29.76F VSB 1/4
MOAB/CYNLANDS  MOSUNNY   38  37  97 SE5       29.80F WCI  34
PRICE          LGT SNOW  32  30  92 CALM      29.80S VSB 3/4
ST GEORGE      CLOUDY    39  36  87 CALM      29.85S
KANAB            N/A     32  32 100 CALM      29.87R

$$

REGIONAL REPORTS     COLORADO/ARIZONA

CITY           SKY/WX    TMP DP  RH WIND       PRES   REMARKS
CRAIG, CO        N/A    N/A N/A N/A MISG      29.83F
GRAND JUNCTION CLOUDY    35  35 100 NW8       29.84R WCI  29
RIFLE          LGT RAIN  33  32  96 CALM      29.86S FOG
MONTROSE       CLOUDY    40  30  67 E7        29.89S
CORTEZ         CLOUDY    43  35  73 S9        29.93F
PAGE, AZ       CLOUDY    38  36  92 N5        29.79S FOG     WCI  34
GRAND CANYON   RAIN      36  35  96 SW16G29   29.82R FOG     WCI  26
KINGMAN        LGT RAIN  42  37  82 SE9       29.83S
FLAGSTAFF      RAIN      37  35  92 S15G29    29.84F FOG     WCI  28

$$

REGIONAL REPORTS    NEVADA/IDAHO/WYOMING

CITY           SKY/WX    TMP DP  RH WIND       PRES   REMARKS
LAS VEGAS, NV  MOCLDY    46  40  79 S6        29.77F
ELY            LGT SNOW  25  24  96 N3        29.75S FOG
ELKO           MOCLDY    23  18  81 CALM      29.77F
POCATELLO, ID  PTCLDY    15  10  80 CALM      29.86R
BURLEY         PTCLDY    19  12  74 CALM      29.81F
EVANSTON, WY   LGT SNOW  23  19  85 E14       29.78F FOG     WCI  11
ROCK SPRINGS   LGT SNOW  22  18  85 NE3       29.82F VSB 1
KEMMERER       LGT SNOW  23  19  86 E3        29.82S

$$


USA.gov is the U.S. government's official web portal to all federal, state and local government web resources and services.